Location: Unspecified
(0.0000°N, 0.0000°E)
Time: 19:56:10
(UTC+02:00)

Daily predictions for brighter satellites

Satellite Brightness Start Highest point End
(mag) Time Altitude Azimuth Time Altitude Azimuth Time Altitude Azimuth
Cosmos 2360 Rocket 3.3 20:14:06 10° SSE 20:18:21 22° ESE 20:22:34 10° ENE
Cosmos 2297 Rocket 2.6 20:14:43 10° N 20:20:01 42° ENE 20:25:19 10° SE
Delta 142 4.2 20:17:03 10° NW 20:21:50 66° NNE 20:28:05 10° ESE
Cosmos 614 Rocket 4.1 20:21:45 10° NNW 20:26:57 85° WSW 20:32:08 10° S
Cosmos 1470 Rocket 3.5 20:23:48 10° N 20:28:05 69° E 20:32:25 10° S
CZ-4 R/B 4.1 20:33:55 10° SSW 20:36:56 21° WSW 20:39:53 10° NW
USA 229 DEB 3.7 20:33:50 10° SSW 20:40:33 62° ESE 20:47:14 10° NNE
USA 229 3.7 20:33:57 10° SSW 20:40:40 61° ESE 20:47:20 10° NE
SL-16 R/B 2.9 20:35:16 10° SSW 20:40:50 59° WNW 20:46:23 10° N
Cosmos 1741 Rocket 4.1 20:36:32 10° NNW 20:41:50 86° WSW 20:47:07 10° S
Cosmos 2242 Rocket 4.3 20:41:54 10° SSE 20:45:59 33° E 20:50:02 10° NNE
Cosmos 1892 3.6 20:45:08 10° NNE 20:48:27 28° E 20:50:45 16° SE
Cosmos 1869 3.2 20:47:40 10° S 20:51:35 65° E 20:55:28 10° NNE
Cosmos 2227 Rocket 2.8 20:46:30 10° NNW 20:52:02 60° WSW 20:57:34 10° S
METEOR-M 4.1 20:47:23 10° SSE 20:52:41 69° ENE 20:57:58 10° N
Cosmos 2142 Rocket 4.4 20:51:47 10° S 20:57:50 62° E 21:03:52 10° NNE
Cosmos 2082 4.2 20:53:40 10° NNW 20:59:12 61° WSW 21:04:48 10° S
SJ-6B 3.2 20:59:47 25° SE 21:01:30 38° ENE 21:05:09 10° N
Meteor 2-3 Rocket 3.7 20:57:55 10° N 21:03:39 67° E 21:09:25 10° SSE
Gbstr 26 Del rocket 4.2 20:58:45 10° SSW 21:04:31 47° ESE 21:11:29 10° NE
CZ-3C R/B 1.9 21:02:08 10° W 21:06:57 25° SW 21:08:06 19° S
XTE 3.7 21:05:19 10° W 21:08:06 39° SSW 21:08:36 35° S
Intercosmos 25 Rocket 3.1 21:05:17 10° S 21:09:07 50° E 21:12:11 10° NNE
Resurs 01 Rocket 3.3 21:10:51 18° NE 21:10:51 18° NE 21:12:47 10° NNE
Helios 1B rocket 2.8 21:08:54 10° NNE 21:12:28 39° E 21:12:28 39° E
Lacrosse 5 4.2 21:10:03 10° WNW 21:13:42 20° WSW 21:17:22 10° SSW
Meteor 2-10 Rocket 4.4 21:18:30 33° E 21:18:30 33° E 21:23:08 10° NNE
ALOS 2.1 21:15:20 21° SSE 21:18:28 70° ENE 21:23:05 10° N
ARIANE 5 DEB (SYLDA) 3.4 21:16:00 10° W 21:19:42 81° N 21:21:55 34° E
FREGAT/IRIS 3.0 21:20:19 43° SSW 21:21:03 60° W 21:24:01 10° NNW
Ariane H10 2.9 21:19:50 10° W 21:22:23 52° N 21:22:49 47° NE
ARIANE 5 DEB (SYLDA) 4.3 21:21:42 10° SW 21:22:11 14° SW 21:22:11 14° SW
FENGYUN 3A 3.5 21:20:11 19° SSE 21:24:09 74° ENE 21:29:28 10° N
Cosmos 1400 Rocket 3.1 21:20:27 10° NNW 21:24:23 65° W 21:27:20 18° S
Ariane H10+ 2.1 21:21:48 10° WNW 21:24:51 55° NNE 21:26:52 36° ENE
Tiangong 1 2.5 21:23:20 10° WSW 21:25:57 31° NW 21:26:19 30° NNW
HJ-1C 4.4 21:30:42 40° N 21:30:42 40° N 21:32:59 10° N
OAO 3 Copernicus 4.2 21:26:00 10° NW 21:31:04 83° NE 21:31:55 62° ESE
Hubble Space Telescope 1.1 21:36:22 10° WNW 21:39:53 62° NW 21:39:53 62° NW
Cosmos 1486 Rocket 4.1 21:36:05 10° N 21:40:45 58° NE 21:40:45 58° NE
Cosmos 1315 Rocket 3.6 21:38:49 10° N 21:41:34 43° NNW 21:41:34 43° NNW
Spelda 3.9 21:43:13 10° W 21:44:33 25° W 21:44:33 25° W
ARIANE 3 DEB 3.3 21:43:10 10° W 21:45:42 60° W 21:45:42 60° W
Cosmos 1862 Rocket 4.0 21:44:57 34° SSW 21:46:42 61° W 21:51:05 10° N
Spot 2 Rocket 4.2 21:52:24 43° N 21:52:24 43° N 21:55:53 10° N
Cosmos 1092 Rocket 4.3 21:50:35 10° NNW 21:56:50 64° W 22:00:55 23° SSW
ARIANE 44LP R/B 4.1 21:55:50 10° W 21:59:28 80° S 22:00:12 70° ESE
Cosmos 2360 Rocket 4.3 21:57:30 10° SW 22:02:02 25° WNW 22:06:36 10° NNW
COSMOS 2428 3.2 21:57:45 10° SSW 22:07:24 20° N 22:09:03 10° N
NOSS 3-1 (C) 4.4 22:20:40 10° SW 22:25:18 38° W 22:25:18 38° W
ATLAS CENTAUR R/B 4.4 22:32:26 10° NW 22:39:22 78° WSW 22:42:25 60° S
Ariane H10 4.3 22:01:11 10° W 22:41:44 72° SSW 22:41:44 72° SSW
CZ-3 Stage 3 4.2 22:42:39 10° NW 22:49:28 28° NNW 22:49:28 28° NNW
Centaur D-1AR AC-39 3.9 22:45:20 10° WNW 22:57:01 44° W 22:57:01 44° W
